User: anonymous   Login
Location: Unspecified
(0.0000°N, 0.0000°E)
Time: 23:48:46
(UTC+00:00)
Language:

Kosmos-1553 - Orbit

View from above orbital plane
View from above orbital plane
View from above satellite
View from above satellite

Ground track
Ground track

The orbit data is extracted from the following two-line orbital elements,

1 14973U 84046A   17349.20061441  .00000056  00000-0  43048-4 0  9992
2 14973  82.9370  36.7971 0030990 303.7415 113.4343 13.75314337685029
Epoch (UTC): 15 December 2017 04:48:53
Eccentricity: 0.0030990
inclination: 82.9370°
perigee height: 958 km
apogee height: 1003 km
right ascension of ascending node: 36.7971°
argument of perigee: 303.7415°
revolutions per day: 13.75314337
mean anomaly at epoch: 113.4343°
orbit number at epoch: 68502

The dashed part of the orbit path shows where the satellite is in the earth's shadow,  

DLR